ATLAS 5 CENTAUR DEB, 44003

Orbit data source: Space-Track

ATLAS 5 CENTAUR DEB, 44003 is space debris in HEO originally from a launch on Wed, 17 Sep 2014 UTC launched from the Air Force Eastern Test Range (AFETR). Debris objects in space refer to the collection of defunct objects orbiting the Earth. Examples of debris include non-operational satellites, rocket bodies, and fragments generated from explosions, collisions, or faulty payload assembly.

Loading next visibility...
Identifier
44003, 2014-055BJ
Orbit
HEO
Country
Flag of USUS
Related business
Flag of USUnited Launch Alliance/Lockheed Martin (US)
Manufacturer
Unknown
Mission
Spacecraft
Bus & Motor
Unknown
Mass
Unknown
Launch date (UTC)
2014-09-17 (12 years ago)
Launch vehicle
Unknown
Launch site
Air Force Eastern Test Range (AFETR)
Object type
Payload
Rocket body
Debris
Shape & HBR
Unknown shape, 1.1 m
Radar Cross Section
Medium (>0.1 m² and <1 m²)

Expand to show TLE details & history
Last TLE update: 2 days ago

TLE from 2 days ago
0 ATLAS 5 CENTAUR DEB
1 44003U 14055BJ  26235.25181037 -.00000069  00000-0  00000-0 0  9997
2 44003  19.4705 171.2896 4607483 118.8677 294.7265  1.81341708 52671
Epoch: 2026-08-23T06:02Z
TLE epoch observation values (Epoch: 2026-08-23T06:02:36.415Z)
Latitude
0.00002°
Longitude
109.00073°
Altitude
22,432.386 km
Speed
3.693 km/s
True Right ascension
11h 24m 48s
True Declination
0° 00' 00"
Sunlit
Object was in daylight at epoch
Visualization orbit readout
Latitude
Unknown
Longitude
Unknown
Altitude
Unknown
Speed
Unknown
Apparent Right ascension
Unknown
Apparent Declination
Unknown
Sunlit
N/A
Visualization observer readout
Local Sidereal Time
01:50:03
Azimuth
Unknown
Elevation
Unknown
Doppler factor
Unknown
Orbital elements
Apogee altitude
35,117.963 km
Perigee altitude
8,940.616 km
Semi-major axis
28,407.427 km
Eccentricity
0.46075
Inclination
19.4705°
RAAN
171.2896°
Arg. of periapsis
118.8677°
True anomaly
241.09987°
Mean anomaly
294.7265°
Eccentric anomaly
268.33866°
Mean motion
0.45331 °/min
Orbital period
794.16 mins
BSTAR
0
Loading maneuver chart data...
Computing Atmospheric mass density...

Documentation

Showing up to 5 results
|